Agassiz, British Columbia

12:20 PM PST on December 14, 2017 (GMT -0800)
Agassiz

Weather History for CWZA - January, 2013

Change the Weather History Date:

Saturday, January 26, 2013

  Actual Average Record
Temperature  
Mean Temperature 36 °F -  
Max Temperature 41 °F 45 °F - ()
Min Temperature 32 °F 34 °F - ()
Degree Days  
Heating Degree Days 28    
Moisture  
Dew Point 35 °F    
Average Humidity 94    
Maximum Humidity 100    
Minimum Humidity 80    
Precipitation  
Precipitation 0.16 in 0.24 in - ()
Sea Level Pressure  
Sea Level Pressure 29.93 in    
Wind  
Wind Speed 2 mph ()    
Max Wind Speed 12 mph    
Max Gust Speed -    
T = Trace of Precipitation, MM = Missing Value Source: Averaged Metar Reports

Daily Weather History Graph

Daily Weather History Graph

Search for Another Location

Airport or City:

Trip Planner

Search our weather history database for the weather conditions in past years. The results will help you decide how hot, cold, wet, or windy it might be!

Date:

Astronomy

Jan. 26, 2013 Rise Set
Actual Time 7:45 AM PST 4:54 PM PST
Civil Twilight 7:10 AM PST 5:29 PM PST
Nautical Twilight 6:32 AM PST 6:08 PM PST
Astronomical Twilight 5:54 AM PST 6:45 PM PST
Moon 4:59 PM PST (1/26) 7:03 AM PST (1/26)
Length of Visible Light 10h 18m
Length of Day
9h 08m
Full, 100% of the Moon is Illuminated
Jan 26
Full
Jan 26
Full
Feb 3
Last Quarter
Feb 9
New
Feb 17
First Quarter

Hourly Weather History & Observations

Time (PST) Temp. Windchill Dew Point Humidity Pressure Visibility Wind Dir Wind Speed Gust Speed Precip Events Conditions
12:00 AM 36.1 °F - 36.0 °F 99% 29.94 in - SSW 1.2 mph - N/A   Unknown
1:00 AM 33.1 °F - 33.1 °F 100% 29.93 in - South 2.3 mph - N/A   Unknown
2:00 AM 34.3 °F - 34.2 °F 99% 29.92 in - WSW 2.3 mph - N/A   Unknown
3:00 AM 34.7 °F - 34.5 °F 99% 29.91 in - SE 1.2 mph - N/A   Unknown
4:00 AM 37 °F - 36 °F 97% 29.90 in - SW 4.6 mph - -  
4:00 AM 37.4 °F 33.8 °F 36.5 °F 97% 29.90 in - SW 4.6 mph - N/A   Unknown
5:00 AM 36.1 °F - 35.1 °F 96% 29.90 in - West 2.3 mph - N/A   Unknown
6:00 AM 38.7 °F - 34.2 °F 84% 29.89 in - North 2.3 mph - N/A   Unknown
7:00 AM 35.1 °F - 33.8 °F 95% 29.89 in - Calm Calm - N/A   Unknown
8:00 AM 34.3 °F - 33.6 °F 97% 29.90 in - Calm Calm - N/A   Unknown
9:00 AM 35.6 °F - 33.6 °F 92% 29.90 in - SSW 1.2 mph - N/A   Unknown
10:00 AM 36 °F - 35 °F 93% 29.92 in - Calm Calm - -  
10:00 AM 36.3 °F - 34.7 °F 94% 29.92 in - Calm Calm - N/A   Unknown
11:00 AM 39.7 °F 32.7 °F 34.0 °F 80% 29.92 in - NNE 11.5 mph - N/A   Unknown
12:00 PM 39.4 °F - 35.8 °F 87% 29.91 in - West 2.3 mph - N/A   Unknown
1:00 PM 40.5 °F - 36.1 °F 85% 29.91 in - NNW 2.3 mph - 0.02 in   Unknown
2:00 PM 40.6 °F 38.6 °F 37.9 °F 90% 29.91 in - WSW 3.5 mph - N/A   Unknown
3:00 PM 40.1 °F - 38.1 °F 93% 29.92 in - SW 2.3 mph - N/A   Unknown
4:00 PM 39 °F - 37 °F 92% 29.93 in - SSW 2.3 mph - -  
4:00 PM 39.4 °F - 37.4 °F 93% 29.93 in - SSW 2.3 mph - N/A   Unknown
5:00 PM 38.5 °F - 36.7 °F 93% 29.94 in - South 2.3 mph - 0.02 in   Unknown
6:00 PM 37.2 °F 34.7 °F 36.0 °F 95% 29.96 in - WSW 3.5 mph - 0.06 in   Unknown
7:00 PM 35.8 °F - 34.5 °F 95% 29.98 in - ENE 1.2 mph - 0.05 in   Unknown
8:00 PM 35.4 °F - 34.7 °F 97% 29.99 in - ENE 1.2 mph - 0.02 in   Unknown
9:00 PM 35.2 °F - 34.7 °F 98% 30.00 in - Calm Calm - N/A   Unknown
10:00 PM 35 °F - 35 °F 100% 30.00 in - Calm Calm - -  
10:00 PM 35.4 °F - 35.1 °F 99% 30.00 in - Calm Calm - N/A   Unknown
11:00 PM 35.6 °F - 35.2 °F 99% 30.01 in - Calm Calm - N/A   Unknown